International Skating Union - Official Site

ISU World Allround Championships 2017
March 4-5, 2017

Draw | Lap Times | Index | Classification

Referee: Knut Arthur  OLSEN  (NOR)
Starter: Jyrki  JÄÄSKELÄINEN  (FIN)
StartTime: EndTime: Air Temp: Ice Temp: Humidity:
16:22 17:22 16.6℃ -10.7℃ 20.6%
Result 10000m Men
Rankings as of Mar 5 2017 5:24PM
Rank: No.: Name: Nation: Time: Behind: Points:
1 17 Sven  Kramer NED NED 13:10.45400m - 35.18 - (35.1)
800m - 1:06.37 - (31.1)
1200m - 1:38.25 - (31.8)
1600m - 2:10.29 - (32.0)
2000m - 2:41.82 - (31.5)
2400m - 3:13.54 - (31.7)
2800m - 3:45.39 - (31.8)
3200m - 4:17.24 - (31.8)
3600m - 4:49.42 - (32.1)
4000m - 5:20.86 - (31.4)
4400m - 5:52.69 - (31.8)
4800m - 6:24.72 - (32.0)
5200m - 6:56.95 - (32.2)
5600m - 7:29.28 - (32.3)
6000m - 8:01.02 - (31.7)
6400m - 8:32.02 - (31.0)
6800m - 9:03.18 - (31.1)
7200m - 9:34.51 - (31.3)
7600m - 10:05.68 - (31.1)
8000m - 10:36.50 - (30.8)
8400m - 11:07.48 - (30.9)
8800m - 11:38.29 - (30.8)
9200m - 12:09.08 - (30.7)
9600m - 12:39.56 - (30.4)
10000m - 13:10.45 - (30.8)
39.522
2 15 Jan  Blokhuijsen NED NED 13:13.39400m - 35.00 - (35.0)
800m - 1:06.27 - (31.2)
1200m - 1:38.00 - (31.7)
1600m - 2:09.67 - (31.6)
2000m - 2:41.28 - (31.6)
2400m - 3:13.07 - (31.7)
2800m - 3:45.07 - (32.0)
3200m - 4:17.28 - (32.2)
3600m - 4:49.32 - (32.0)
4000m - 5:21.18 - (31.8)
4400m - 5:53.06 - (31.8)
4800m - 6:24.84 - (31.7)
5200m - 6:56.88 - (32.0)
5600m - 7:28.46 - (31.5)
6000m - 8:00.23 - (31.7)
6400m - 8:31.72 - (31.4)
6800m - 9:03.38 - (31.6)
7200m - 9:34.98 - (31.6)
7600m - 10:06.49 - (31.5)
8000m - 10:37.81 - (31.3)
8400m - 11:09.19 - (31.3)
8800m - 11:40.32 - (31.1)
9200m - 12:11.43 - (31.1)
9600m - 12:42.47 - (31.0)
10000m - 13:13.39 - (30.9)
2.94 39.669
3 1 Bart  Swings BEL BEL 13:20.61400m - 34.62 - (34.6)
800m - 1:06.58 - (31.9)
1200m - 1:38.59 - (32.0)
1600m - 2:10.62 - (32.0)
2000m - 2:42.41 - (31.7)
2400m - 3:14.15 - (31.7)
2800m - 3:45.83 - (31.6)
3200m - 4:17.73 - (31.9)
3600m - 4:49.63 - (31.9)
4000m - 5:21.54 - (31.9)
4400m - 5:53.42 - (31.8)
4800m - 6:25.12 - (31.7)
5200m - 6:56.86 - (31.7)
5600m - 7:28.79 - (31.9)
6000m - 8:00.61 - (31.8)
6400m - 8:32.45 - (31.8)
6800m - 9:04.28 - (31.8)
7200m - 9:36.22 - (31.9)
7600m - 10:08.16 - (31.9)
8000m - 10:40.08 - (31.9)
8400m - 11:12.11 - (32.0)
8800m - 11:44.39 - (32.2)
9200m - 12:16.59 - (32.2)
9600m - 12:48.64 - (32.0)
10000m - 13:20.61 - (31.9)
10.16 40.030
4 5 Patrick  Beckert GER GER 13:20.84400m - 36.02 - (36.0)
800m - 1:07.65 - (31.6)
1200m - 1:39.38 - (31.7)
1600m - 2:11.20 - (31.8)
2000m - 2:43.22 - (32.0)
2400m - 3:15.16 - (31.9)
2800m - 3:47.42 - (32.2)
3200m - 4:19.61 - (32.1)
3600m - 4:51.69 - (32.0)
4000m - 5:23.68 - (31.9)
4400m - 5:55.80 - (32.1)
4800m - 6:27.82 - (32.0)
5200m - 6:59.97 - (32.1)
5600m - 7:32.00 - (32.0)
6000m - 8:04.63 - (32.6)
6400m - 8:36.71 - (32.0)
6800m - 9:08.40 - (31.6)
7200m - 9:40.23 - (31.8)
7600m - 10:12.26 - (32.0)
8000m - 10:44.32 - (32.0)
8400m - 11:16.32 - (32.0)
8800m - 11:48.01 - (31.6)
9200m - 12:19.22 - (31.2)
9600m - 12:50.15 - (30.9)
10000m - 13:20.84 - (30.6)
10.39 40.042
5 18 Patrick  Roest NED NED 13:21.11400m - 35.31 - (35.3)
800m - 1:06.73 - (31.4)
1200m - 1:38.39 - (31.6)
1600m - 2:10.20 - (31.8)
2000m - 2:41.83 - (31.6)
2400m - 3:13.57 - (31.7)
2800m - 3:45.34 - (31.7)
3200m - 4:17.22 - (31.8)
3600m - 4:49.11 - (31.8)
4000m - 5:21.07 - (31.9)
4400m - 5:52.96 - (31.8)
4800m - 6:25.05 - (32.0)
5200m - 6:57.32 - (32.2)
5600m - 7:29.59 - (32.2)
6000m - 8:01.81 - (32.2)
6400m - 8:33.96 - (32.1)
6800m - 9:06.04 - (32.0)
7200m - 9:38.12 - (32.0)
7600m - 10:10.27 - (32.1)
8000m - 10:42.53 - (32.2)
8400m - 11:14.79 - (32.2)
8800m - 11:47.05 - (32.2)
9200m - 12:18.88 - (31.8)
9600m - 12:50.34 - (31.4)
10000m - 13:21.11 - (30.7)
10.66 40.055
6 22 Sverre Lunde  Pedersen NOR NOR 13:24.57400m - 35.09 - (35.0)
800m - 1:06.63 - (31.5)
1200m - 1:38.18 - (31.5)
1600m - 2:09.98 - (31.8)
2000m - 2:41.96 - (31.9)
2400m - 3:14.23 - (32.2)
2800m - 3:46.08 - (31.8)
3200m - 4:18.33 - (32.2)
3600m - 4:50.32 - (31.9)
4000m - 5:22.43 - (32.1)
4400m - 5:54.32 - (31.8)
4800m - 6:26.17 - (31.8)
5200m - 6:58.15 - (31.9)
5600m - 7:30.31 - (32.1)
6000m - 8:02.55 - (32.2)
6400m - 8:34.93 - (32.3)
6800m - 9:07.27 - (32.3)
7200m - 9:39.52 - (32.2)
7600m - 10:11.55 - (32.0)
8000m - 10:43.76 - (32.2)
8400m - 11:15.81 - (32.0)
8800m - 11:48.07 - (32.2)
9200m - 12:20.25 - (32.1)
9600m - 12:52.31 - (32.0)
10000m - 13:24.57 - (32.2)
14.12 40.228
7 8 Andrea  Giovannini ITA ITA 13:26.17400m - 35.96 - (35.9)
800m - 1:07.82 - (31.8)
1200m - 1:39.31 - (31.4)
1600m - 2:10.90 - (31.5)
2000m - 2:42.34 - (31.4)
2400m - 3:14.09 - (31.7)
2800m - 3:46.05 - (31.9)
3200m - 4:18.16 - (32.1)
3600m - 4:50.28 - (32.1)
4000m - 5:22.32 - (32.0)
4400m - 5:54.42 - (32.1)
4800m - 6:26.72 - (32.3)
5200m - 6:58.99 - (32.2)
5600m - 7:31.12 - (32.1)
6000m - 8:03.49 - (32.3)
6400m - 8:35.80 - (32.3)
6800m - 9:07.70 - (31.9)
7200m - 9:39.82 - (32.1)
7600m - 10:12.07 - (32.2)
8000m - 10:44.41 - (32.3)
8400m - 11:16.59 - (32.1)
8800m - 11:48.83 - (32.2)
9200m - 12:21.09 - (32.2)
9600m - 12:53.53 - (32.4)
10000m - 13:26.17 - (32.6)
15.72 40.308
8 11 Shota  Nakamura JPN JPN 13:57.88400m - 35.36 - (35.3)
800m - 1:07.09 - (31.7)
1200m - 1:40.01 - (32.9)
1600m - 2:13.28 - (33.2)
2000m - 2:46.05 - (32.7)
2400m - 3:18.95 - (32.9)
2800m - 3:51.91 - (32.9)
3200m - 4:24.94 - (33.0)
3600m - 4:57.71 - (32.7)
4000m - 5:30.55 - (32.8)
4400m - 6:03.52 - (32.9)
4800m - 6:36.53 - (33.0)
5200m - 7:09.47 - (32.9)
5600m - 7:42.69 - (33.2)
6000m - 8:15.93 - (33.2)
6400m - 8:49.35 - (33.4)
6800m - 9:23.34 - (33.9)
7200m - 9:57.22 - (33.8)
7600m - 10:31.33 - (34.1)
8000m - 11:06.20 - (34.8)
8400m - 11:40.81 - (34.6)
8800m - 12:15.41 - (34.6)
9200m - 12:49.88 - (34.4)
9600m - 13:23.84 - (33.9)
10000m - 13:57.88 - (34.0)
47.43 41.894